Location: ?????????
(41.2393°N, 22.9479°E)
Time: 21:48:11
(UTC+00:00)

Cosmos 841 Rocket - Pass Details

Date: 17 November 2025
Orbit: 742 x 768 km, 74.0° (Epoch: 12 December)

Event Time Altitude Azimuth Distance (km) Brightness Sun altitude
Rises 16:28:50 0° 349° (N) 3,245 6.7 -15.3°
Reaches altitude 10° 16:31:30 10° 360° (N) 2,316 5.9 -15.8°
Maximum altitude 16:36:08 31° 62° (ENE) 1,337 4.2 -16.7°
Enters shadow 16:37:09 28° 83° (E) 1,401 4.3 -16.9°
